Regional Weather Roundup
Issued by NWS Kansas City/Pleasant Hill, MO

Home | Current Version | Previous Version | Graphics & Text | Print | Product List | Glossary Off
Versions: 1 2 3 4 5 6 7 8 9 10 11 12 13 14 15 16 17 18 19 20 21 22 23 24 25 26 27

000
ASUS43 KEAX 242210
RWREAX

WEATHER ROUNDUP FOR EASTERN KANSAS AND NORTHWEST MISSOURI
NATIONAL WEATHER SERVICE KANSAS CITY/PLEASANT HILL MO
500 PM CDT SAT JUN 24 2017

KSZ040-057-103>105-MOZ028-029-037-043-242300-
...KANSAS CITY METROPOLITAN AREA...

CITY           SKY/WX    TMP DP  RH WIND       PRES   REMARKS
K.C. INTL      MOSUNNY   78  47  33 NW7       30.18F
K.C. DOWNTOWN  CLOUDY    79  44  28 W12       30.17F
LEES SUMMIT    SUNNY     75  44  33 NW8       30.19S
OLATHE - IXD   SUNNY     77  45  32 NW14      30.19F
OLATHE - OJC   SUNNY     76  41  28 N13G22    30.19F
LAWRENCE       SUNNY     79  49  34 W9        30.18F

$$

MOZ001>008-011>017-020>025-030>033-038>040-044>046-053-054-242300-
...NORTHERN AND CENTRAL MISSOURI...

CITY           SKY/WX    TMP DP  RH WIND       PRES   REMARKS
ST. JOSEPH     SUNNY     80  44  27 NW14      30.16F
MOSBY          CLEAR     77  37  24 NW9G16    30.18F
WARRENSBURG    SUNNY     77  43  29 NW13      30.17S
WHITEMAN AFB   SUNNY     78  44  30 N14G20    30.16S
CLINTON        SUNNY     77  45  31 N6        30.18S
SEDALIA        SUNNY     78  48  34 N9        30.17F
WARSAW         NOT AVBL
CHILLICOTHE      N/A     78  41  26 NW10      30.17S
KIRKSVILLE     SUNNY     76  45  33 W9G21     30.15F

$$

MOZ041-047>049-056>058-063>065-088>090-097-242300-
...EASTERN AND SOUTHERN MISSOURI...

CITY           SKY/WX    TMP DP  RH WIND       PRES   REMARKS
ST. LOUIS INTL MOSUNNY   81  46  29 NW16G25   30.11F
SPIRIT OF STL  MOSUNNY   78  47  33 NW15G23   30.10F
COLUMBIA       SUNNY     78  47  33 NW14      30.14F
JEFFERSON CITY SUNNY     78  42  27 N12       30.14S
ROLLA          SUNNY     76  46  34 NW13      30.14F
OSAGE BEACH    SUNNY     78  45  30 VRB5      30.16F
SPRINGFIELD    SUNNY     78  51  38 NW12      30.17F
BRANSON        PTSUNNY   77  50  38 NW10      30.18F
JOPLIN         MOSUNNY   81  53  37 N6        30.18F
WEST PLAINS    CLOUDY    79  51  37 NW8       30.16F

$$

IAZ060-094-KSZ022-034>040-054-083-096-NEZ052-066-093-242300-
...KANSAS...SOUTHEAST NEBRASKA AND IOWA...

CITY           SKY/WX    TMP DP  RH WIND       PRES   REMARKS
TOPEKA         SUNNY     80  45  28 NW13      30.18F
MANHATTAN      SUNNY     80  40  23 NW5       30.19F
EMPORIA        SUNNY     79  45  29 NW8       30.19F
CHANUTE        SUNNY     83  45  26 N9G20     30.18F
WICHITA        MOSUNNY   83  52  34 S3        30.17F
OMAHA          MOSUNNY   80  37  21 NW17      30.12F
LINCOLN        CLOUDY    79  41  25 W10       30.16F
FALLS CITY     MOSUNNY   75  44  33 W9        30.15F
LAMONI         MOSUNNY   76  45  33 W18       30.14F
DES MOINES     MOSUNNY   77  41  27 W23G30    30.07F

$$





USA.gov is the U.S. government's official web portal to all federal, state and local government web resources and services.